Time,TemperatureF,DewpointF,PressureIn,WindDirection,WindDirectionDegrees,WindSpeedMPH,WindSpeedGustMPH,Humidity,HourlyPrecipIn,Conditions,Clouds,dailyrainin,SolarRadiationWatts/m^2,SoftwareType,DateUTC
2013-03-20 00:02:00,42.0,7.0,-100.00,South,185,2.0,3.0,23,0.00,,,-99.99,0.000000,,2013-03-20 06:02:00,
2013-03-20 00:12:00,41.0,8.0,-100.00,SE,127,2.0,4.0,25,0.00,,,-99.99,0.000000,,2013-03-20 06:12:00,
2013-03-20 00:21:00,40.0,11.0,-100.00,South,173,2.0,5.0,29,0.00,,,-99.99,0.000000,,2013-03-20 06:21:00,
2013-03-20 00:32:00,40.0,11.0,-100.00,South,173,2.0,5.0,29,0.00,,,-99.99,0.000000,,2013-03-20 06:32:00,
2013-03-20 00:42:00,42.0,9.0,-100.00,South,169,3.0,7.0,25,0.00,,,-99.99,0.000000,,2013-03-20 06:42:00,
2013-03-20 00:51:00,41.0,7.0,-100.00,SW,222,2.0,4.0,24,0.00,,,-99.99,0.000000,,2013-03-20 06:51:00,
2013-03-20 01:02:00,41.0,7.0,-100.00,West,265,2.0,5.0,25,0.00,,,-99.99,0.000000,,2013-03-20 07:02:00,
2013-03-20 01:11:00,41.0,9.0,-100.00,ESE,105,2.0,4.0,27,0.00,,,-99.99,0.000000,,2013-03-20 07:11:00,
2013-03-20 01:21:00,41.0,9.0,-100.00,SSE,164,4.0,6.0,26,0.00,,,-99.99,0.000000,,2013-03-20 07:21:00,
2013-03-20 01:31:00,40.0,11.0,-100.00,SSE,161,4.0,6.0,30,0.00,,,-99.99,0.000000,,2013-03-20 07:31:00,
2013-03-20 01:41:00,40.0,11.0,-100.00,South,174,3.0,5.0,30,0.00,,,-99.99,0.000000,,2013-03-20 07:41:00,
2013-03-20 01:50:00,38.0,14.0,-100.00,SSE,156,5.0,6.0,36,0.00,,,-99.99,0.000000,,2013-03-20 07:50:00,
2013-03-20 01:52:00,40.0,11.0,-100.00,South,189,2.0,4.0,30,0.00,,,-99.99,0.000000,,2013-03-20 07:52:00,
2013-03-20 02:02:00,39.0,12.0,-100.00,SSE,156,5.0,7.0,32,0.00,,,-99.99,0.000000,,2013-03-20 08:02:00,
2013-03-20 02:11:00,38.0,14.0,-100.00,SSE,156,5.0,6.0,36,0.00,,,-99.99,0.000000,,2013-03-20 08:11:00,
2013-03-20 02:21:00,38.0,14.0,-100.00,SSE,156,5.0,6.0,36,0.00,,,-99.99,0.000000,,2013-03-20 08:21:00,
2013-03-20 02:32:00,38.0,14.0,-100.00,SSE,156,5.0,6.0,36,0.00,,,-99.99,0.000000,,2013-03-20 08:32:00,
2013-03-20 02:42:00,38.0,14.0,-100.00,SSE,156,5.0,6.0,36,0.00,,,-99.99,0.000000,,2013-03-20 08:42:00,
2013-03-20 03:22:00,38.0,15.0,-100.00,SSE,157,4.0,5.0,39,0.00,,,-99.99,0.000000,,2013-03-20 09:22:00,
2013-03-20 03:33:00,37.0,14.0,-100.00,South,173,3.0,4.0,38,0.00,,,-99.99,0.000000,,2013-03-20 09:33:00,
2013-03-20 03:43:00,36.0,16.0,-100.00,South,174,4.0,7.0,43,0.00,,,-99.99,0.000000,,2013-03-20 09:43:00,
2013-03-20 03:53:00,37.0,15.0,-100.00,South,177,5.0,8.0,40,0.00,,,-99.99,0.000000,,2013-03-20 09:53:00,
2013-03-20 04:02:00,36.0,16.0,-100.00,SSE,159,6.0,8.0,43,0.00,,,-99.99,0.000000,,2013-03-20 10:02:00,
2013-03-20 04:12:00,38.0,14.0,-100.00,SSE,163,5.0,7.0,38,0.00,,,-99.99,0.000000,,2013-03-20 10:12:00,
2013-03-20 04:22:00,38.0,14.0,-100.00,South,178,4.0,6.0,37,0.00,,,-99.99,0.000000,,2013-03-20 10:22:00,
2013-03-20 04:32:00,38.0,15.0,-100.00,South,173,4.0,6.0,38,0.00,,,-99.99,0.000000,,2013-03-20 10:32:00,
2013-03-20 04:42:00,39.0,15.0,-100.00,SSE,162,5.0,7.0,37,0.00,,,-99.99,0.000000,,2013-03-20 10:42:00,
2013-03-20 04:52:00,39.0,15.0,-100.00,SSE,162,5.0,7.0,37,0.00,,,-99.99,0.000000,,2013-03-20 10:52:00,
2013-03-20 05:02:00,40.0,13.0,-100.00,SSW,201,3.0,5.0,33,0.00,,,-99.99,0.000000,,2013-03-20 11:02:00,
2013-03-20 05:12:00,41.0,12.0,-100.00,SW,221,1.0,3.0,30,0.00,,,-99.99,0.000000,,2013-03-20 11:12:00,
2013-03-20 05:21:00,40.0,11.0,-100.00,SW,214,3.0,5.0,30,0.00,,,-99.99,0.000000,,2013-03-20 11:21:00,
2013-03-20 05:32:00,40.0,13.0,-100.00,South,169,3.0,5.0,34,0.00,,,-99.99,0.000000,,2013-03-20 11:32:00,
2013-03-20 05:42:00,39.0,14.0,-100.00,SSE,166,3.0,5.0,35,0.00,,,-99.99,0.000000,,2013-03-20 11:42:00,
2013-03-20 05:51:00,39.0,14.0,-100.00,SSE,166,3.0,5.0,35,0.00,,,-99.99,0.000000,,2013-03-20 11:51:00,
2013-03-20 06:02:00,38.0,19.0,-100.00,SSE,148,6.0,8.0,45,0.00,,,-99.99,0.000000,,2013-03-20 12:02:00,
2013-03-20 06:11:00,40.0,16.0,-100.00,SSE,161,5.0,7.0,37,0.00,,,-99.99,0.000000,,2013-03-20 12:11:00,
2013-03-20 06:21:00,41.0,14.0,-100.00,South,185,5.0,6.0,34,0.00,,,-99.99,0.000000,,2013-03-20 12:21:00,
2013-03-20 06:32:00,41.0,15.0,-100.00,South,182,4.0,5.0,35,0.00,,,-99.99,0.000000,,2013-03-20 12:32:00,
2013-03-20 06:42:00,39.0,16.0,-100.00,SSE,158,6.0,8.0,39,0.00,,,-99.99,0.000000,,2013-03-20 12:42:00,
2013-03-20 06:50:00,40.0,16.0,-100.00,South,171,3.0,5.0,36,0.00,,,-99.99,0.000000,,2013-03-20 12:50:00,
2013-03-20 06:51:00,40.0,15.0,-100.00,SSE,166,6.0,7.0,37,0.00,,,-99.99,0.000000,,2013-03-20 12:51:00,
2013-03-20 07:02:00,41.0,13.0,-100.00,SW,219,4.0,6.0,32,0.00,,,-99.99,0.000000,,2013-03-20 13:02:00,
2013-03-20 07:12:00,40.0,16.0,-100.00,South,171,3.0,5.0,36,0.00,,,-99.99,0.000000,,2013-03-20 13:12:00,
2013-03-20 07:21:00,40.0,16.0,-100.00,South,171,3.0,5.0,36,0.00,,,-99.99,0.000000,,2013-03-20 13:21:00,
2013-03-20 07:32:00,40.0,16.0,-100.00,South,171,3.0,5.0,36,0.00,,,-99.99,0.000000,,2013-03-20 13:32:00,
2013-03-20 07:42:00,40.0,16.0,-100.00,South,171,3.0,5.0,36,0.00,,,-99.99,0.000000,,2013-03-20 13:42:00,
2013-03-20 08:23:00,42.0,12.0,-100.00,SSW,200,2.0,4.0,29,0.00,,,-99.99,9.000000,,2013-03-20 14:23:00,
2013-03-20 08:34:00,42.0,19.0,-100.00,SE,142,5.0,7.0,39,0.00,,,-99.99,13.000000,,2013-03-20 14:34:00,
2013-03-20 08:43:00,42.0,17.0,-100.00,SE,144,6.0,7.0,36,0.00,,,-99.99,17.000000,,2013-03-20 14:43:00,
2013-03-20 08:52:00,43.0,17.0,-100.00,SSE,155,5.0,6.0,35,0.00,,,-99.99,20.000000,,2013-03-20 14:52:00,
2013-03-20 09:02:00,43.0,19.0,-100.00,SE,134,4.0,5.0,37,0.00,,,-99.99,38.000000,,2013-03-20 15:02:00,
2013-03-20 09:12:00,43.0,19.0,-100.00,SSW,206,1.0,3.0,37,0.00,,,-99.99,54.000000,,2013-03-20 15:12:00,
2013-03-20 09:21:00,43.0,20.0,-100.00,WSW,247,2.0,3.0,40,0.00,,,-99.99,79.000000,,2013-03-20 15:21:00,
2013-03-20 09:33:00,44.0,20.0,-100.00,SSW,201,3.0,3.0,37,0.00,,,-99.99,132.000000,,2013-03-20 15:33:00,
2013-03-20 09:43:00,46.0,18.0,-100.00,West,268,2.0,4.0,32,0.00,,,-99.99,297.000000,,2013-03-20 15:43:00,
2013-03-20 09:52:00,46.0,17.0,-100.00,NW,315,3.0,5.0,30,0.00,,,-99.99,261.000000,,2013-03-20 15:52:00,
2013-03-20 10:02:00,47.0,16.0,-100.00,WSW,238,1.0,2.0,28,0.00,,,-99.99,132.000000,,2013-03-20 16:02:00,
2013-03-20 10:12:00,48.0,17.0,-100.00,West,276,1.0,2.0,29,0.00,,,-99.99,153.000000,,2013-03-20 16:12:00,
2013-03-20 10:22:00,48.0,18.0,-100.00,WNW,294,2.0,3.0,30,0.00,,,-99.99,96.000000,,2013-03-20 16:22:00,
2013-03-20 10:32:00,48.0,18.0,-100.00,SW,231,3.0,4.0,30,0.00,,,-99.99,118.000000,,2013-03-20 16:32:00,
2013-03-20 10:42:00,49.0,19.0,-100.00,South,175,2.0,3.0,31,0.00,,,-99.99,123.000000,,2013-03-20 16:42:00,
2013-03-20 10:52:00,49.0,19.0,-100.00,East,90,3.0,5.0,30,0.00,,,-99.99,122.000000,,2013-03-20 16:52:00,
2013-03-20 11:02:00,48.0,20.0,-100.00,ENE,73,5.0,7.0,32,0.00,,,-99.99,140.000000,,2013-03-20 17:02:00,
2013-03-20 11:11:00,48.0,18.0,-100.00,ENE,60,4.0,5.0,30,0.00,,,-99.99,142.000000,,2013-03-20 17:11:00,
2013-03-20 11:21:00,49.0,20.0,-100.00,ENE,60,2.0,5.0,32,0.00,,,-99.99,134.000000,,2013-03-20 17:21:00,
2013-03-20 11:32:00,49.0,18.0,-100.00,ESE,108,1.0,2.0,29,0.00,,,-99.99,145.000000,,2013-03-20 17:32:00,
2013-03-20 11:42:00,49.0,20.0,-100.00,SSE,147,2.0,4.0,32,0.00,,,-99.99,159.000000,,2013-03-20 17:42:00,
2013-03-20 11:50:00,52.0,20.0,-100.00,SSW,203,2.0,5.0,28,0.00,,,-99.99,254.000000,,2013-03-20 17:50:00,
2013-03-20 11:52:00,49.0,19.0,-100.00,ESE,116,1.0,4.0,30,0.00,,,-99.99,184.000000,,2013-03-20 17:52:00,
2013-03-20 12:02:00,50.0,20.0,-100.00,East,96,2.0,5.0,30,0.00,,,-99.99,243.000000,,2013-03-20 18:02:00,
2013-03-20 12:12:00,52.0,20.0,-100.00,SSW,203,2.0,5.0,28,0.00,,,-99.99,254.000000,,2013-03-20 18:12:00,
2013-03-20 12:21:00,52.0,20.0,-100.00,SSW,203,2.0,5.0,28,0.00,,,-99.99,254.000000,,2013-03-20 18:21:00,
2013-03-20 12:32:00,52.0,20.0,-100.00,SSW,203,2.0,5.0,28,0.00,,,-99.99,254.000000,,2013-03-20 18:32:00,
2013-03-20 12:42:00,52.0,20.0,-100.00,SSW,203,2.0,5.0,28,0.00,,,-99.99,254.000000,,2013-03-20 18:42:00,
2013-03-20 13:23:00,54.0,21.0,-100.00,ENE,60,5.0,8.0,28,0.00,,,-99.99,303.000000,,2013-03-20 19:23:00,
2013-03-20 13:32:00,54.0,21.0,-100.00,ENE,64,5.0,7.0,27,0.00,,,-99.99,319.000000,,2013-03-20 19:32:00,
2013-03-20 13:42:00,54.0,21.0,-100.00,SSE,166,5.0,7.0,27,0.00,,,-99.99,295.000000,,2013-03-20 19:42:00,
2013-03-20 13:53:00,54.0,22.0,-100.00,West,264,6.0,8.0,28,0.00,,,-99.99,328.000000,,2013-03-20 19:53:00,
2013-03-20 14:02:00,54.0,23.0,-100.00,SSE,151,5.0,7.0,30,0.00,,,-99.99,327.000000,,2013-03-20 20:02:00,
2013-03-20 14:12:00,54.0,22.0,-100.00,SSE,154,5.0,9.0,28,0.00,,,-99.99,312.000000,,2013-03-20 20:12:00,
2013-03-20 14:21:00,55.0,24.0,-100.00,NE,48,5.0,7.0,30,0.00,,,-99.99,286.000000,,2013-03-20 20:21:00,
2013-03-20 14:32:00,55.0,22.0,-100.00,NE,43,6.0,8.0,28,0.00,,,-99.99,365.000000,,2013-03-20 20:32:00,
2013-03-20 14:42:00,56.0,24.0,-100.00,NE,44,7.0,10.0,29,0.00,,,-99.99,400.000000,,2013-03-20 20:42:00,
2013-03-20 14:52:00,56.0,24.0,-100.00,NE,47,7.0,10.0,29,0.00,,,-99.99,615.000000,,2013-03-20 20:52:00,
2013-03-20 15:01:00,58.0,25.0,-100.00,NE,54,6.0,8.0,28,0.00,,,-99.99,636.000000,,2013-03-20 21:01:00,
2013-03-20 15:12:00,58.0,25.0,-100.00,NE,53,8.0,11.0,28,0.00,,,-99.99,628.000000,,2013-03-20 21:12:00,
2013-03-20 15:21:00,59.0,26.0,-100.00,ENE,67,6.0,11.0,28,0.00,,,-99.99,444.000000,,2013-03-20 21:21:00,
2013-03-20 15:33:00,59.0,26.0,-100.00,East,90,6.0,9.0,28,0.00,,,-99.99,487.000000,,2013-03-20 21:33:00,
2013-03-20 15:42:00,59.0,26.0,-100.00,East,90,6.0,9.0,28,0.00,,,-99.99,487.000000,,2013-03-20 21:42:00,
2013-03-20 15:52:00,59.0,26.0,-100.00,East,90,6.0,9.0,28,0.00,,,-99.99,487.000000,,2013-03-20 21:52:00,
2013-03-20 16:02:00,59.0,25.0,-100.00,SW,227,1.0,5.0,27,0.00,,,-99.99,307.000000,,2013-03-20 22:02:00,
2013-03-20 16:12:00,59.0,25.0,-100.00,SW,227,1.0,5.0,27,0.00,,,-99.99,307.000000,,2013-03-20 22:12:00,
2013-03-20 16:23:00,57.0,28.0,-100.00,NW,317,8.0,13.0,33,0.00,,,-99.99,236.000000,,2013-03-20 22:23:00,
2013-03-20 16:32:00,56.0,28.0,-100.00,WNW,302,10.0,13.0,34,0.00,,,-99.99,258.000000,,2013-03-20 22:32:00,
2013-03-20 16:42:00,57.0,27.0,-100.00,SW,231,8.0,11.0,32,0.00,,,-99.99,279.000000,,2013-03-20 22:42:00,
2013-03-20 16:50:00,57.0,27.0,-100.00,SSE,164,4.0,7.0,31,0.00,,,-99.99,201.000000,,2013-03-20 22:50:00,
2013-03-20 16:52:00,57.0,27.0,-100.00,ENE,78,6.0,8.0,32,0.00,,,-99.99,233.000000,,2013-03-20 22:52:00,
2013-03-20 17:02:00,58.0,27.0,-100.00,SW,215,5.0,8.0,31,0.00,,,-99.99,221.000000,,2013-03-20 23:02:00,
2013-03-20 17:12:00,57.0,27.0,-100.00,SSE,164,4.0,7.0,31,0.00,,,-99.99,201.000000,,2013-03-20 23:12:00,
2013-03-20 17:22:00,57.0,27.0,-100.00,SSE,164,4.0,7.0,31,0.00,,,-99.99,201.000000,,2013-03-20 23:22:00,
2013-03-20 17:32:00,57.0,27.0,-100.00,SSE,164,4.0,7.0,31,0.00,,,-99.99,201.000000,,2013-03-20 23:32:00,
2013-03-20 17:42:00,57.0,27.0,-100.00,SSE,164,4.0,7.0,31,0.00,,,-99.99,201.000000,,2013-03-20 23:42:00,
2013-03-20 18:23:00,60.0,27.0,-100.00,SW,224,2.0,3.0,28,0.00,,,-99.99,305.000000,,2013-03-21 00:23:00,
2013-03-20 18:33:00,59.0,27.0,-100.00,WSW,250,3.0,4.0,29,0.00,,,-99.99,232.000000,,2013-03-21 00:33:00,
2013-03-20 18:42:00,58.0,27.0,-100.00,NNW,332,5.0,8.0,30,0.00,,,-99.99,97.000000,,2013-03-21 00:42:00,
2013-03-20 18:52:00,58.0,28.0,-100.00,NW,316,4.0,6.0,31,0.00,,,-99.99,154.000000,,2013-03-21 00:52:00,
2013-03-20 19:02:00,55.0,30.0,-100.00,NNW,332,7.0,11.0,38,0.00,,,-99.99,48.000000,,2013-03-21 01:02:00,
2013-03-20 19:11:00,55.0,31.0,-100.00,NNW,328,5.0,9.0,40,0.00,,,-99.99,33.000000,,2013-03-21 01:11:00,
2013-03-20 19:21:00,54.0,32.0,-100.00,WNW,303,2.0,4.0,43,0.00,,,-99.99,17.000000,,2013-03-21 01:21:00,
2013-03-20 19:32:00,54.0,31.0,-100.00,WSW,256,2.0,4.0,42,0.00,,,-99.99,8.000000,,2013-03-21 01:32:00,
2013-03-20 19:42:00,53.0,31.0,-100.00,SSW,202,2.0,5.0,43,0.00,,,-99.99,5.000000,,2013-03-21 01:42:00,
2013-03-20 19:52:00,52.0,33.0,-100.00,SE,133,5.0,7.0,48,0.00,,,-99.99,2.000000,,2013-03-21 01:52:00,
2013-03-20 20:01:00,52.0,33.0,-100.00,ESE,115,4.0,8.0,47,0.00,,,-99.99,1.000000,,2013-03-21 02:01:00,
2013-03-20 20:12:00,52.0,34.0,-100.00,SSE,147,3.0,5.0,49,0.00,,,-99.99,0.000000,,2013-03-21 02:12:00,
2013-03-20 20:22:00,53.0,32.0,-100.00,SW,231,3.0,6.0,44,0.00,,,-99.99,0.000000,,2013-03-21 02:22:00,
2013-03-20 20:32:00,53.0,31.0,-100.00,WSW,242,2.0,4.0,42,0.00,,,-99.99,0.000000,,2013-03-21 02:32:00,
2013-03-20 20:42:00,53.0,31.0,-100.00,WSW,242,2.0,4.0,42,0.00,,,-99.99,0.000000,,2013-03-21 02:42:00,
2013-03-20 20:51:00,53.0,31.0,-100.00,WSW,242,2.0,4.0,42,0.00,,,-99.99,0.000000,,2013-03-21 02:51:00,
2013-03-20 21:02:00,51.0,33.0,-100.00,SW,214,8.0,12.0,50,0.00,,,-99.99,0.000000,,2013-03-21 03:02:00,
2013-03-20 21:12:00,50.0,35.0,-100.00,SSW,209,9.0,12.0,57,0.00,,,-99.99,0.000000,,2013-03-21 03:12:00,
2013-03-20 21:21:00,49.0,36.0,-100.00,SSW,209,7.0,11.0,59,0.00,,,-99.99,0.000000,,2013-03-21 03:21:00,
2013-03-20 21:32:00,50.0,35.0,-100.00,SSW,198,7.0,11.0,55,0.00,,,-99.99,0.000000,,2013-03-21 03:32:00,
2013-03-20 21:43:00,48.0,36.0,-100.00,South,183,7.0,13.0,63,0.00,,,-99.99,0.000000,,2013-03-21 03:43:00,
2013-03-20 21:50:00,46.0,40.0,-100.00,ESE,114,6.0,10.0,78,0.00,,,-99.99,0.000000,,2013-03-21 03:50:00,
2013-03-20 21:52:00,48.0,37.0,-100.00,SSW,206,5.0,8.0,65,0.00,,,-99.99,0.000000,,2013-03-21 03:52:00,
2013-03-20 22:02:00,48.0,37.0,-100.00,South,188,3.0,7.0,64,0.00,,,-99.99,0.000000,,2013-03-21 04:02:00,
2013-03-20 22:12:00,46.0,40.0,-100.00,ESE,114,6.0,10.0,78,0.00,,,-99.99,0.000000,,2013-03-21 04:12:00,
2013-03-20 22:22:00,46.0,40.0,-100.00,ESE,114,6.0,10.0,78,0.00,,,-99.99,0.000000,,2013-03-21 04:22:00,
2013-03-20 22:32:00,46.0,40.0,-100.00,ESE,114,6.0,10.0,78,0.00,,,-99.99,0.000000,,2013-03-21 04:32:00,
2013-03-20 22:43:00,46.0,40.0,-100.00,ESE,114,6.0,10.0,78,0.00,,,-99.99,0.000000,,2013-03-21 04:43:00,
2013-03-20 23:22:00,50.0,34.0,-100.00,SSW,204,9.0,12.0,54,0.00,,,-99.99,0.000000,,2013-03-21 05:22:00,
2013-03-20 23:33:00,47.0,37.0,-100.00,WSW,253,5.0,9.0,68,0.00,,,-99.99,0.000000,,2013-03-21 05:33:00,
2013-03-20 23:44:00,47.0,37.0,-100.00,SE,145,3.0,5.0,69,0.00,,,-99.99,0.000000,,2013-03-21 05:44:00,
2013-03-20 23:52:00,46.0,38.0,-100.00,WSW,247,8.0,11.0,72,0.00,,,-99.99,0.000000,,2013-03-21 05:52:00,